FENGYUN 1C DEB

Satellite information

Favourite Embed

Satellite Type and Status

DEBRISIN ORBIT

Key statistics

Satellite FENGYUN 1C DEB at a glance.

Uptime

9715

Days in orbit

Revolutions

≈ 14.4

Per day

Orbit

SSO

Sun Synchronous Orbit

Inclination

98.4

Latest

Satellite identification and parameters

Extended collection of information and parameters for FENGYUN 1C DEB.

Object identification

Identified? True

Debris? True

Object name: FENGYUN 1C DEB

International designator: 1999-025AXZ

Object number (NORAD): 30887

Object ID (CCSDS): 30887

Country: PEOPLES REPUBLIC OF CHINA (PRC)

Current information (Y/N): Y

RCS size: SMALL

Orbital parameters

Period: 99.666 minutes

Inclination: 98.3692 deg

SMA: 7120.735 km

Apoapsis: 930.283 km

Periapsis: 554.916 km

RAAN: 43.2912 deg

Eccentricy: 0.02635733

Argument of periapsis: 285.6967 deg

Mean anomaly: 71.5294 deg

Mean motion: 14.44825971 rev/day

Mean motion (dot): 0.00005294 rev/day2

B* drag term: 0.0010028505 1/REarth

Two-line elements (TLE)

Creation date: Dec. 14, 2025, 3:07 a.m.

Reference frame: TEME

Reference center: EARTH

Epoch: Dec. 13, 2025, 10:24 a.m. UTC

TLE line 0: 0 FENGYUN 1C DEB

TLE line 1: 1 30887U 99025AXZ 25347.43363293 .00005294 00000-0 10029-2 0 9999

TLE line 2: 2 30887 98.3692 43.2912 0263573 285.6967 71.5294 14.44825971981387

Live tracking on map

Real-time ground track for satellite FENGYUN 1C DEB.

In-orbit conjunctions

A list of the most updated potential collisions computed for object FENGYUN 1C DEB.

Target Orbit TCA Probability of collision Miss distance Type
CZ-6A DEB LEO 2025-11-18 23:15:14 0.0001171536 249.0 (m) DEBRIS
METEOR 2-17 DEB LEO 2025-03-10 08:41:21 0.0001120325 90.0 (m) DEBRIS

Associated space launch

Chinese polar orbiting meteorological satellite

FENGYUN 1C DEB was lifted into orbit during the mission ‘Long March 4B | Feng Yun 1C’, on board a Long March 4B space rocket.

The launch took place on May 10, 1999, 1:33 a.m. from Launch Complex 7.

For more information about the launch, click the button.

Launch to space Long March 4B | Feng Yun 1C
Long March 4B | Feng Yun 1C

Agency: N/A

Status: Launch Successful

Launch date: May 10, 1999, 1:33 a.m. UTC

Rocket: Long March 4B

Launch pad: Launch Complex 7

Location: Taiyuan Satellite Launch Center, People's Republic of China

...

Latest news about this satellite

There are no fresh news available about this satellite. Check back as we update our databases every day.


Newsletter sign-up

Weekly statistics, charts and insights to help you stay on top of the space industry.